Location: Venise Bay
(45.0825°N, 73.1481°W)
Time: 02:21:29
(UTC-05:00)

ISS - Pass Details

Date: 19 January 2020
Orbit: 415 x 422 km, 51.6° (Epoch: 22 February)

Event Time Altitude Azimuth Distance (km) Brightness Sun altitude
Rises 19:15:49 0° 226° (SW) 2,367 0.7 -26.8°
Reaches altitude 10° 19:17:56 10° 221° (SW) 1,504 -0.5 -27.2°
Enters shadow 19:18:31 14° 218° (SW) 1,281 -0.9 -27.3°
